This demonstration page uses our WeatherBlox Daily Observations layout. Learn more.

Left ArrowRight Arrow

39.51506, -84.39828

Hourly Observations for June 13, 2016

Temp ( °F °C ) Dew Point ( °F °C ) Humidity (%) Winds ( mph kmh ) Pressure ( in mb ) Visibility ( mi km ) Precip ( " mm )
12:15 am 00:15 Clear 62 16.6 47 8.2 58 58 NNE 5 7 30.03 1017 10 16 N/A
12:35 am 00:35 Clear 64 18 46 7.5 50 50 NNE 3 6 30.03 1017 10 16 N/A
12:55 am 00:55 Clear 63 17.3 45 7.1 51 51 NNE 6 9 30.03 1017 10 16 N/A
1:15 am 01:15 Clear 64 18 44 6.6 47 47 NNE 6 9 30.03 1017 10 16 N/A
1:35 am 01:35 Clear 62 16.8 45 7 53 53 N N/A 30.03 1017 10 16 N/A
1:55 am 01:55 Clear 62 16.6 45 7 53 53 N N/A 30.03 1017 10 16 N/A
2:15 am 02:15 Clear 61 15.9 47 8.5 62 62 N N/A 30.03 1017 10 16 N/A
2:35 am 02:35 Clear 60 15.3 46 7.5 60 60 N N/A 30.06 1018 10 16 N/A
2:55 am 02:55 Clear 60 15.3 47 8.1 62 62 N N/A 30.06 1018 10 16 N/A
3:15 am 03:15 Clear 57 13.8 48 8.8 72 72 N N/A 30.09 1019 10 16 N/A
3:35 am 03:35 Clear 57 13.8 48 8.8 72 72 N N/A 30.09 1019 10 16 N/A
3:55 am 03:55 Clear 56 13.2 48 9 76 76 N N/A 30.06 1018 10 16 N/A
4:15 am 04:15 Clear 55 12.5 47 8.5 77 77 N N/A 30.09 1019 10 16 N/A
4:35 am 04:35 Clear 55 12.5 47 8.6 77 77 N N/A 30.06 1018 10 16 N/A
4:55 am 04:55 Clear 55 12.5 48 8.7 78 78 N N/A 30.09 1019 10 16 N/A
5:15 am 05:15 Clear 55 12.5 47 8.2 75 75 N 3 6 30.09 1019 10 16 N/A
5:35 am 05:35 Clear 55 12.5 47 8.2 75 75 NNE 3 6 30.09 1019 10 16 N/A
5:55 am 05:55 Clear 55 12.5 47 8.6 77 77 N N/A 30.09 1019 10 16 N/A
6:15 am 06:15 Sunny 55 12.5 48 9.1 80 80 N N/A 30.09 1019 10 16 N/A
6:35 am 06:35 Sunny 55 12.5 48 9 79 79 N N/A 30.09 1019 10 16 N/A
6:55 am 06:55 Sunny 55 12.5 48 9 79 79 N N/A 30.09 1019 10 16 N/A
7:15 am 07:15 Sunny 57 13.8 49 9.6 76 76 N N/A 30.09 1019 10 16 N/A
7:35 am 07:35 Sunny 57 14.1 49 9.3 73 73 N 3 6 30.12 1020 10 16 N/A
7:55 am 07:55 Sunny 61 15.9 48 9 64 64 N 3 6 30.12 1020 10 16 N/A
8:15 am 08:15 Sunny 62 16.6 46 8 57 57 N N/A 30.09 1019 10 16 N/A
8:35 am 08:35 Sunny 64 17.6 47 8.5 55 55 N N/A 30.09 1019 10 16 N/A
8:55 am 08:55 Sunny 66 19 48 8.8 52 52 N N/A 30.09 1019 10 16 N/A
9:15 am 09:15 Sunny 69 20.8 43 5.9 38 38 E 3 6 30.09 1019 10 16 N/A
9:35 am 09:35 Sunny 70 21 41 5 35 35 E 5 7 30.09 1019 10 16 N/A
9:55 am 09:55 Sunny 73 22.8 42 5.8 33 33 E 5 7 30.09 1019 10 16 N/A
10:15 am 10:15 Sunny 74 23.6 42 5.4 31 31 E 3 6 30.06 1018 10 16 N/A
10:35 am 10:35 Sunny 74 23.6 40 4.6 29 29 E 9 15 30.06 1018 10 16 N/A
10:55 am 10:55 Sunny 74 23.6 40 4.3 29 29 ENE 6 9 30.06 1018 10 16 N/A
11:15 am 11:15 Sunny 75 24.1 38 3.6 26 26 ESE 6 9 30.06 1018 10 16 N/A
11:35 am 11:35 Sunny 77 25.1 41 5.1 28 28 NE 5 7 30.06 1018 10 16 N/A
12:35 pm 12:35 Sunny 77 25.1 37 3 24 24 N N/A 30.03 1017 10 16 N/A
12:55 pm 12:55 Sunny 79 26.3 41 5 26 26 N N/A 30.03 1017 10 16 N/A
1:15 pm 13:15 Sunny 80 26.5 40 4.5 24 24 N 3 6 30.03 1017 10 16 N/A
1:35 pm 13:35 Sunny 80 26.5 41 5.2 26 26 NNW 3 6 30.03 1017 10 16 N/A
1:55 pm 13:55 Sunny 80 26.5 38 3.5 23 23 NNW 3 6 30.00 1016 10 16 N/A
2:15 pm 14:15 Sunny 81 27.2 39 4.1 23 23 N N/A 30.00 1016 10 16 N/A
2:35 pm 14:35 Sunny 82 27.5 38 3.5 21 21 WSW 3 6 30.00 1016 10 16 N/A
2:55 pm 14:55 Sunny 81 27.3 37 2.7 20 20 N N/A 30.00 1016 10 16 N/A
3:15 pm 15:15 Sunny 82 28 37 2.7 20 20 N N/A 29.94 1014 10 16 N/A
3:35 pm 15:35 Sunny 82 28 32 -0.1 16 16 N N/A 29.94 1014 10 16 N/A
3:55 pm 15:55 Sunny 82 28 33 0.6 17 17 N N/A 29.94 1014 10 16 N/A
4:15 pm 16:15 Sunny 82 28 34 1.2 18 18 N N/A 29.94 1014 10 16 N/A
4:35 pm 16:35 Sunny 83 28.6 36 2.1 18 18 N 3 6 29.91 1013 10 16 N/A
4:55 pm 16:55 Sunny 83 28.6 36 2 18 18 N N/A 29.91 1013 10 16 N/A
5:15 pm 17:15 Sunny 83 28.6 35 1.9 18 18 N 3 6 29.91 1013 10 16 N/A
5:35 pm 17:35 Sunny 83 28.5 33 0.4 16 16 N N/A 29.91 1013 10 16 N/A
5:55 pm 17:55 Sunny 83 28.5 34 0.9 17 17 N N/A 29.91 1013 10 16 N/A
6:15 pm 18:15 Sunny 84 28.8 31 -0.6 15 15 N N/A 29.91 1013 10 16 N/A
6:35 pm 18:35 Sunny 83 28.5 35 1.7 18 18 N N/A 29.91 1013 10 16 N/A
6:55 pm 18:55 Sunny 83 28.3 38 3.3 20 20 N N/A 29.88 1012 10 16 N/A
7:15 pm 19:15 Sunny 83 28.4 35 1.4 17 17 N N/A 29.88 1012 10 16 N/A
7:35 pm 19:35 Sunny 82 28 43 5.9 25 25 N N/A 29.88 1012 10 16 N/A
7:55 pm 19:55 Sunny 81 27.3 48 8.8 31 31 N N/A 29.88 1012 10 16 N/A
8:15 pm 20:15 Sunny 80 26.5 50 9.9 35 35 N N/A 29.91 1013 10 16 N/A
8:35 pm 20:35 Sunny 78 25.5 60 15.6 54 54 N N/A 29.91 1013 10 16 N/A
8:55 pm 20:55 Sunny 74 23.6 62 16.7 65 65 N N/A 29.91 1013 10 16 N/A
9:15 pm 21:15 Clear 74 23.5 60 15.7 62 62 NW 3 6 29.91 1013 10 16 N/A
9:35 pm 21:35 Clear 69 20.8 57 14.1 66 66 N N/A 29.91 1013 10 16 N/A
9:55 pm 21:55 Clear 69 20.8 58 14.6 68 68 N N/A 29.91 1013 10 16 N/A
10:15 pm 22:15 Clear 69 20.8 58 14.2 66 66 N N/A 29.91 1013 10 16 N/A
10:35 pm 22:35 Clear 69 20.8 58 14.3 66 66 N N/A 29.91 1013 10 16 N/A
10:55 pm 22:55 Clear 67 19.5 57 13.7 69 69 N N/A 29.91 1013 10 16 N/A
11:15 pm 23:15 Clear 67 19.5 56 13.3 68 68 N N/A 29.91 1013 10 16 N/A
11:35 pm 23:35 Clear 67 19.5 56 13.1 67 67 N N/A 29.91 1013 10 16 N/A
11:55 pm 23:55 Clear 64 18 55 12.8 72 72 N N/A 29.91 1013 10 16 N/A

Powered by AerisWeather